Saint Bonnet de Bellac- Haute Vienne - France
Donnes mto: mercredi, 25/07/2012
Date Horaire Temp. E. Hum. E. P.atmo. Pluie Vent Direction Direction Ensoleilleme Solaire P. de rose Temp au vent Rafales
25/07/2012 00:00 19,7 C 64 % 1014,0 hPa 0,0 mm 0,0 km/h (0 Bft) N-NE 22 0 min 0 W/m 12,7 C 19,7 C 0,0 km/h (0 Bft)
25/07/2012 00:10 19,4 C 64 % 1014,0 hPa 0,0 mm 0,0 km/h (0 Bft) N-NE 22 0 min 0 W/m 12,4 C 19,4 C 0,0 km/h (0 Bft)
25/07/2012 00:20 19,2 C 65 % 1014,0 hPa 0,0 mm 0,4 km/h (0 Bft) E 90 0 min 0 W/m 12,5 C 19,2 C 3,2 km/h (1 Bft)
25/07/2012 00:30 19,2 C 66 % 1014,0 hPa 0,0 mm 0,0 km/h (0 Bft) E-SE 112 0 min 0 W/m 12,7 C 19,2 C 0,0 km/h (0 Bft)
25/07/2012 00:40 19,1 C 67 % 1013,8 hPa 0,0 mm 0,0 km/h (0 Bft) E 90 0 min 0 W/m 12,8 C 19,1 C 0,0 km/h (0 Bft)
25/07/2012 00:50 19,0 C 68 % 1013,9 hPa 0,0 mm 0,0 km/h (0 Bft) E-SE 112 0 min 0 W/m 13,0 C 19,0 C 0,0 km/h (0 Bft)
25/07/2012 01:00 18,9 C 69 % 1013,9 hPa 0,0 mm 0,0 km/h (0 Bft) E-SE 112 0 min 0 W/m 13,1 C 18,9 C 0,0 km/h (0 Bft)
25/07/2012 01:10 18,8 C 69 % 1013,9 hPa 0,0 mm 0,4 km/h (0 Bft) E-SE 112 0 min 0 W/m 13,0 C 18,8 C 3,6 km/h (1 Bft)
25/07/2012 01:20 18,6 C 70 % 1013,9 hPa 0,0 mm 0,7 km/h (0 Bft) E-SE 112 0 min 0 W/m 13,0 C 18,6 C 3,6 km/h (1 Bft)
25/07/2012 01:30 18,6 C 72 % 1013,9 hPa 0,0 mm 0,0 km/h (0 Bft) E-SE 112 0 min 0 W/m 13,4 C 18,6 C 0,0 km/h (0 Bft)
25/07/2012 01:40 18,5 C 72 % 1013,8 hPa 0,0 mm 0,0 km/h (0 Bft) E-NE 67 0 min 0 W/m 13,4 C 18,5 C 0,0 km/h (0 Bft)
25/07/2012 01:50 18,4 C 73 % 1013,8 hPa 0,0 mm 0,0 km/h (0 Bft) SE 135 0 min 0 W/m 13,5 C 18,4 C 0,0 km/h (0 Bft)
25/07/2012 02:00 18,1 C 73 % 1013,7 hPa 0,0 mm 0,0 km/h (0 Bft) E-SE 112 0 min 0 W/m 13,2 C 18,1 C 0,0 km/h (0 Bft)
25/07/2012 02:10 17,8 C 74 % 1013,7 hPa 0,0 mm 0,0 km/h (0 Bft) E-SE 112 0 min 0 W/m 13,1 C 17,8 C 2,9 km/h (1 Bft)
25/07/2012 02:20 17,8 C 74 % 1013,6 hPa 0,0 mm 0,0 km/h (0 Bft) E-SE 112 0 min 0 W/m 13,1 C 17,8 C 0,0 km/h (0 Bft)
25/07/2012 02:30 17,8 C 74 % 1013,6 hPa 0,0 mm 0,0 km/h (0 Bft) E 90 0 min 0 W/m 13,1 C 17,8 C 0,0 km/h (0 Bft)
25/07/2012 02:40 17,8 C 74 % 1013,6 hPa 0,0 mm 2,9 km/h (1 Bft) E 90 0 min 0 W/m 13,1 C 17,8 C 4,3 km/h (1 Bft)
25/07/2012 02:50 17,7 C 75 % 1013,5 hPa 0,0 mm 0,0 km/h (0 Bft) E 90 0 min 0 W/m 13,2 C 17,7 C 0,0 km/h (0 Bft)
25/07/2012 03:02 17,5 C 75 % 1013,5 hPa 0,0 mm 0,0 km/h (0 Bft) E-NE 67 0 min 0 W/m 13,0 C 17,5 C 0,0 km/h (0 Bft)
25/07/2012 03:10 17,4 C 75 % 1013,5 hPa 0,0 mm 0,0 km/h (0 Bft) E-NE 67 0 min 0 W/m 12,9 C 17,4 C 0,0 km/h (0 Bft)
25/07/2012 03:20 17,3 C 75 % 1013,5 hPa 0,0 mm 0,0 km/h (0 Bft) E-NE 67 0 min 0 W/m 12,8 C 17,3 C 0,0 km/h (0 Bft)
25/07/2012 03:30 17,1 C 76 % 1013,5 hPa 0,0 mm 0,0 km/h (0 Bft) E 90 0 min 0 W/m 12,8 C 17,1 C 0,0 km/h (0 Bft)
25/07/2012 03:40 17,1 C 76 % 1013,5 hPa 0,0 mm 0,0 km/h (0 Bft) E-NE 67 0 min 0 W/m 12,8 C 17,1 C 0,0 km/h (0 Bft)
25/07/2012 03:50 16,9 C 76 % 1013,5 hPa 0,0 mm 0,0 km/h (0 Bft) E 90 0 min 0 W/m 12,6 C 16,9 C 0,0 km/h (0 Bft)
25/07/2012 04:00 16,7 C 77 % 1013,5 hPa 0,0 mm 2,9 km/h (1 Bft) E 90 0 min 0 W/m 12,6 C 16,7 C 4,0 km/h (1 Bft)
25/07/2012 04:10 16,6 C 78 % 1013,5 hPa 0,0 mm 0,4 km/h (0 Bft) E-NE 67 0 min 0 W/m 12,7 C 16,6 C 4,0 km/h (1 Bft)
25/07/2012 04:20 16,6 C 79 % 1013,4 hPa 0,0 mm 0,0 km/h (0 Bft) E-NE 67 0 min 0 W/m 12,9 C 16,6 C 2,9 km/h (1 Bft)
25/07/2012 04:30 16,6 C 79 % 1013,5 hPa 0,0 mm 0,0 km/h (0 Bft) E 90 0 min 0 W/m 12,9 C 16,6 C 0,0 km/h (0 Bft)
25/07/2012 04:40 16,4 C 79 % 1013,5 hPa 0,0 mm 1,4 km/h (1 Bft) E-NE 67 0 min 0 W/m 12,7 C 16,4 C 1,4 km/h (1 Bft)
25/07/2012 04:50 16,4 C 79 % 1013,3 hPa 0,0 mm 4,0 km/h (1 Bft) E 90 0 min 0 W/m 12,7 C 16,4 C 8,3 km/h (2 Bft)
25/07/2012 05:00 16,4 C 80 % 1013,5 hPa 0,0 mm 1,4 km/h (1 Bft) E 90 0 min 0 W/m 12,9 C 16,4 C 3,2 km/h (1 Bft)
25/07/2012 05:10 16,3 C 80 % 1013,4 hPa 0,0 mm 2,9 km/h (1 Bft) E 90 0 min 0 W/m 12,8 C 16,3 C 4,3 km/h (1 Bft)
25/07/2012 05:20 16,3 C 80 % 1013,3 hPa 0,0 mm 1,8 km/h (1 Bft) E 90 0 min 0 W/m 12,8 C 16,3 C 4,3 km/h (1 Bft)
25/07/2012 05:30 16,3 C 80 % 1013,4 hPa 0,0 mm 0,7 km/h (0 Bft) NE 45 0 min 0 W/m 12,8 C 16,3 C 0,7 km/h (0 Bft)
25/07/2012 05:40 16,2 C 80 % 1013,4 hPa 0,0 mm 0,0 km/h (0 Bft) E 90 0 min 0 W/m 12,7 C 16,2 C 0,0 km/h (0 Bft)
25/07/2012 05:50 16,1 C 80 % 1013,4 hPa 0,0 mm 0,0 km/h (0 Bft) E-NE 67 0 min 0 W/m 12,6 C 16,1 C 0,0 km/h (0 Bft)
25/07/2012 06:00 15,9 C 80 % 1013,5 hPa 0,0 mm 0,0 km/h (0 Bft) E 90 0 min 0 W/m 12,5 C 15,9 C 0,0 km/h (0 Bft)
25/07/2012 06:10 15,9 C 81 % 1013,4 hPa 0,0 mm 0,0 km/h (0 Bft) E 90 0 min 0 W/m 12,6 C 15,9 C 3,6 km/h (1 Bft)
25/07/2012 06:20 15,8 C 80 % 1013,4 hPa 0,0 mm 0,0 km/h (0 Bft) E 90 0 min 0 W/m 12,4 C 15,8 C 0,0 km/h (0 Bft)
25/07/2012 06:30 15,7 C 80 % 1013,5 hPa 0,0 mm 0,0 km/h (0 Bft) E 90 0 min 0 W/m 12,3 C 15,7 C 0,0 km/h (0 Bft)
25/07/2012 06:40 15,7 C 80 % 1013,5 hPa 0,0 mm 0,0 km/h (0 Bft) E 90 0 min 0 W/m 12,3 C 15,7 C 3,2 km/h (1 Bft)
25/07/2012 06:50 15,8 C 81 % 1013,5 hPa 0,0 mm 0,0 km/h (0 Bft) E 90 0 min 0 W/m 12,5 C 15,8 C 3,2 km/h (1 Bft)
25/07/2012 07:00 15,7 C 81 % 1013,5 hPa 0,0 mm 0,4 km/h (0 Bft) E 90 0 min 0 W/m 12,4 C 15,7 C 0,4 km/h (0 Bft)
25/07/2012 07:10 15,7 C 81 % 1013,5 hPa 0,0 mm 0,0 km/h (0 Bft) E 90 0 min 0 W/m 12,4 C 15,7 C 0,0 km/h (0 Bft)
25/07/2012 07:20 15,8 C 81 % 1013,6 hPa 0,0 mm 0,4 km/h (0 Bft) E 90 0 min 0 W/m 12,5 C 15,8 C 3,2 km/h (1 Bft)
25/07/2012 07:30 16,0 C 81 % 1013,6 hPa 0,0 mm 0,7 km/h (0 Bft) E 90 0 min 0 W/m 12,7 C 16,0 C 4,0 km/h (1 Bft)
25/07/2012 07:40 16,5 C 80 % 1013,7 hPa 0,0 mm 1,4 km/h (1 Bft) E 90 0 min 0 W/m 13,0 C 16,5 C 4,0 km/h (1 Bft)
25/07/2012 07:50 17,1 C 79 % 1013,6 hPa 0,0 mm 1,8 km/h (1 Bft) E 90 0 min 0 W/m 13,4 C 17,1 C 1,8 km/h (1 Bft)
25/07/2012 08:00 17,7 C 77 % 1013,6 hPa 0,0 mm 0,0 km/h (0 Bft) E 90 0 min 0 W/m 13,6 C 17,7 C 1,4 km/h (1 Bft)
25/07/2012 08:10 18,3 C 76 % 1013,8 hPa 0,0 mm 2,9 km/h (1 Bft) E 90 0 min 0 W/m 14,0 C 18,3 C 4,0 km/h (1 Bft)
25/07/2012 08:20 19,0 C 74 % 1013,7 hPa 0,0 mm 0,0 km/h (0 Bft) E 90 0 min 0 W/m 14,3 C 19,0 C 0,0 km/h (0 Bft)
25/07/2012 08:30 19,8 C 72 % 1013,7 hPa 0,0 mm 2,2 km/h (1 Bft) E 90 0 min 0 W/m 14,6 C 19,8 C 4,0 km/h (1 Bft)
25/07/2012 08:40 20,4 C 71 % 1013,9 hPa 0,0 mm 0,0 km/h (0 Bft) E 90 0 min 0 W/m 15,0 C 20,4 C 0,0 km/h (0 Bft)
25/07/2012 08:50 21,3 C 69 % 1013,9 hPa 0,0 mm 0,0 km/h (0 Bft) E 90 0 min 0 W/m 15,4 C 21,3 C 0,0 km/h (0 Bft)
25/07/2012 09:00 22,2 C 70 % 1014,0 hPa 0,0 mm 0,0 km/h (0 Bft) E 90 0 min 0 W/m 16,5 C 22,2 C 0,0 km/h (0 Bft)
25/07/2012 09:10 22,9 C 69 % 1014,2 hPa 0,0 mm 0,0 km/h (0 Bft) E 90 0 min 0 W/m 16,9 C 22,9 C 0,0 km/h (0 Bft)
25/07/2012 09:20 23,7 C 67 % 1014,1 hPa 0,0 mm 0,0 km/h (0 Bft) E 90 0 min 0 W/m 17,2 C 23,7 C 0,0 km/h (0 Bft)
25/07/2012 09:30 24,3 C 65 % 1014,2 hPa 0,0 mm 0,0 km/h (0 Bft) E 90 0 min 0 W/m 17,3 C 24,3 C 0,0 km/h (0 Bft)
25/07/2012 09:40 24,9 C 64 % 1014,1 hPa 0,0 mm 0,0 km/h (0 Bft) E-NE 67 0 min 0 W/m 17,6 C 24,9 C 0,0 km/h (0 Bft)
25/07/2012 09:50 25,6 C 62 % 1014,2 hPa 0,0 mm 1,4 km/h (1 Bft) E-NE 67 0 min 0 W/m 17,8 C 25,6 C 4,0 km/h (1 Bft)
25/07/2012 10:00 26,3 C 60 % 1014,3 hPa 0,0 mm 0,7 km/h (0 Bft) E-NE 67 0 min 0 W/m 17,9 C 26,3 C 3,6 km/h (1 Bft)
25/07/2012 10:10 26,4 C 59 % 1014,4 hPa 0,0 mm 1,4 km/h (1 Bft) E 90 0 min 0 W/m 17,7 C 26,4 C 3,2 km/h (1 Bft)
25/07/2012 10:20 26,8 C 57 % 1014,4 hPa 0,0 mm 2,5 km/h (1 Bft) E 90 0 min 0 W/m 17,6 C 26,8 C 2,9 km/h (1 Bft)
25/07/2012 10:30 27,3 C 56 % 1014,5 hPa 0,0 mm 0,0 km/h (0 Bft) E 90 0 min 0 W/m 17,7 C 27,3 C 0,0 km/h (0 Bft)
25/07/2012 10:40 27,8 C 54 % 1014,5 hPa 0,0 mm 0,0 km/h (0 Bft) E 90 0 min 0 W/m 17,6 C 27,8 C 0,0 km/h (0 Bft)
25/07/2012 10:50 28,6 C 52 % 1014,3 hPa 0,0 mm 0,0 km/h (0 Bft) E 90 0 min 0 W/m 17,8 C 28,6 C 0,0 km/h (0 Bft)
25/07/2012 11:00 29,1 C 51 % 1014,3 hPa 0,0 mm 0,0 km/h (0 Bft) E-NE 67 0 min 0 W/m 17,9 C 29,1 C 0,0 km/h (0 Bft)
25/07/2012 11:10 29,7 C 49 % 1014,4 hPa 0,0 mm 0,0 km/h (0 Bft) E 90 0 min 0 W/m 17,8 C 29,7 C 0,0 km/h (0 Bft)
25/07/2012 11:20 30,2 C 47 % 1014,4 hPa 0,0 mm 0,0 km/h (0 Bft) E-SE 112 0 min 0 W/m 17,6 C 30,2 C 0,0 km/h (0 Bft)
25/07/2012 11:30 30,3 C 45 % 1014,5 hPa 0,0 mm 0,7 km/h (0 Bft) S 180 0 min 0 W/m 17,0 C 30,3 C 4,0 km/h (1 Bft)
25/07/2012 11:40 30,6 C 43 % 1014,3 hPa 0,0 mm 1,1 km/h (1 Bft) O-SO 247 0 min 0 W/m 16,6 C 30,6 C 1,1 km/h (1 Bft)
25/07/2012 11:50 30,7 C 44 % 1014,3 hPa 0,0 mm 0,7 km/h (0 Bft) S-SO 202 0 min 0 W/m 17,0 C 30,7 C 3,2 km/h (1 Bft)
25/07/2012 12:00 30,8 C 40 % 1014,3 hPa 0,0 mm 0,4 km/h (0 Bft) O-SO 247 0 min 0 W/m 15,6 C 30,8 C 0,4 km/h (0 Bft)
25/07/2012 12:10 30,6 C 37 % 1014,4 hPa 0,0 mm 4,7 km/h (1 Bft) S-SO 202 0 min 0 W/m 14,2 C 30,6 C 4,7 km/h (1 Bft)
25/07/2012 12:20 30,8 C 40 % 1014,4 hPa 0,0 mm 3,2 km/h (1 Bft) S-SE 157 0 min 0 W/m 15,6 C 30,8 C 4,7 km/h (1 Bft)
25/07/2012 12:30 31,1 C 40 % 1014,4 hPa 0,0 mm 0,0 km/h (0 Bft) O-SO 247 0 min 0 W/m 15,9 C 31,1 C 0,0 km/h (0 Bft)
25/07/2012 12:40 31,3 C 40 % 1014,3 hPa 0,0 mm 1,4 km/h (1 Bft) SO 225 0 min 0 W/m 16,1 C 31,3 C 1,4 km/h (1 Bft)
25/07/2012 12:50 31,7 C 40 % 1014,3 hPa 0,0 mm 0,0 km/h (0 Bft) O 270 0 min 0 W/m 16,4 C 31,7 C 0,0 km/h (0 Bft)
25/07/2012 13:00 31,5 C 39 % 1014,3 hPa 0,0 mm 2,5 km/h (1 Bft) SO 225 0 min 0 W/m 15,8 C 31,5 C 5,8 km/h (2 Bft)
25/07/2012 13:10 31,4 C 40 % 1014,2 hPa 0,0 mm 2,9 km/h (1 Bft) S-SE 157 0 min 0 W/m 16,1 C 31,4 C 4,3 km/h (1 Bft)
25/07/2012 13:20 31,4 C 39 % 1014,3 hPa 0,0 mm 0,7 km/h (0 Bft) O-SO 247 0 min 0 W/m 15,7 C 31,4 C 0,7 km/h (0 Bft)
25/07/2012 13:30 31,8 C 41 % 1014,2 hPa 0,0 mm 0,4 km/h (0 Bft) N 360 0 min 0 W/m 16,9 C 31,8 C 4,3 km/h (1 Bft)
25/07/2012 13:40 32,0 C 40 % 1014,1 hPa 0,0 mm 3,6 km/h (1 Bft) NO 315 0 min 0 W/m 16,7 C 32,0 C 4,3 km/h (1 Bft)
25/07/2012 13:50 32,5 C 40 % 1014,2 hPa 0,0 mm 0,0 km/h (0 Bft) O-NO 292 0 min 0 W/m 17,1 C 32,5 C 0,0 km/h (0 Bft)
25/07/2012 14:00 32,3 C 39 % 1014,1 hPa 0,0 mm 0,0 km/h (0 Bft) SE 135 0 min 0 W/m 16,5 C 32,3 C 0,0 km/h (0 Bft)
25/07/2012 14:10 32,4 C 36 % 1014,2 hPa 0,0 mm 4,7 km/h (1 Bft) S-SE 157 0 min 0 W/m 15,4 C 32,4 C 8,3 km/h (2 Bft)
25/07/2012 14:20 32,4 C 37 % 1014,1 hPa 0,0 mm 1,1 km/h (1 Bft) S 180 0 min 0 W/m 15,8 C 32,4 C 3,2 km/h (1 Bft)
25/07/2012 14:30 32,4 C 37 % 1014,1 hPa 0,0 mm 1,1 km/h (1 Bft) N 360 0 min 0 W/m 15,8 C 32,4 C 1,1 km/h (1 Bft)
25/07/2012 14:40 32,6 C 38 % 1014,1 hPa 0,0 mm 1,1 km/h (1 Bft) SE 135 0 min 0 W/m 16,4 C 32,6 C 3,6 km/h (1 Bft)
25/07/2012 14:50 32,8 C 37 % 1014,0 hPa 0,0 mm 3,2 km/h (1 Bft) SO 225 0 min 0 W/m 16,2 C 32,8 C 4,0 km/h (1 Bft)
25/07/2012 15:00 32,6 C 37 % 1014,0 hPa 0,0 mm 0,0 km/h (0 Bft) S-SO 202 0 min 0 W/m 16,0 C 32,6 C 0,0 km/h (0 Bft)
25/07/2012 15:10 32,6 C 37 % 1013,9 hPa 0,0 mm 2,2 km/h (1 Bft) S-SO 202 0 min 0 W/m 16,0 C 32,6 C 7,6 km/h (2 Bft)
25/07/2012 15:20 32,6 C 36 % 1013,9 hPa 0,0 mm 0,7 km/h (0 Bft) E-NE 67 0 min 0 W/m 15,6 C 32,6 C 4,3 km/h (1 Bft)
25/07/2012 15:30 32,8 C 36 % 1013,9 hPa 0,0 mm 4,0 km/h (1 Bft) NE 45 0 min 0 W/m 15,7 C 32,8 C 8,6 km/h (2 Bft)
25/07/2012 15:40 33,1 C 35 % 1013,9 hPa 0,0 mm 4,7 km/h (1 Bft) S-SO 202 0 min 0 W/m 15,6 C 33,1 C 10,4 km/h (2 Bft)
25/07/2012 15:50 32,9 C 36 % 1013,8 hPa 0,0 mm 1,8 km/h (1 Bft) S-SE 157 0 min 0 W/m 15,8 C 32,9 C 3,2 km/h (1 Bft)
25/07/2012 16:00 32,9 C 35 % 1013,8 hPa 0,0 mm 0,0 km/h (0 Bft) SO 225 0 min 0 W/m 15,4 C 32,9 C 0,0 km/h (0 Bft)
25/07/2012 16:10 33,1 C 35 % 1013,7 hPa 0,0 mm 4,3 km/h (1 Bft) N-NE 22 0 min 0 W/m 15,6 C 33,1 C 4,3 km/h (1 Bft)
25/07/2012 16:20 33,2 C 35 % 1013,7 hPa 0,0 mm 7,2 km/h (2 Bft) E-SE 112 0 min 0 W/m 15,6 C 33,2 C 9,7 km/h (2 Bft)
25/07/2012 16:30 32,9 C 35 % 1013,6 hPa 0,0 mm 0,0 km/h (0 Bft) SO 225 0 min 0 W/m 15,4 C 32,9 C 0,0 km/h (0 Bft)
25/07/2012 16:40 33,3 C 36 % 1013,7 hPa 0,0 mm 2,5 km/h (1 Bft) S-SE 157 0 min 0 W/m 16,2 C 33,3 C 2,9 km/h (1 Bft)
25/07/2012 16:50 33,3 C 36 % 1013,6 hPa 0,0 mm 1,1 km/h (1 Bft) S-SO 202 0 min 0 W/m 16,2 C 33,3 C 2,9 km/h (1 Bft)
25/07/2012 17:00 33,3 C 35 % 1013,6 hPa 0,0 mm 0,4 km/h (0 Bft) S-SE 157 0 min 0 W/m 15,7 C 33,3 C 1,4 km/h (1 Bft)
25/07/2012 17:10 33,2 C 35 % 1013,5 hPa 0,0 mm 0,0 km/h (0 Bft) SO 225 0 min 0 W/m 15,6 C 33,2 C 2,9 km/h (1 Bft)
25/07/2012 17:20 33,3 C 34 % 1013,5 hPa 0,0 mm 0,0 km/h (0 Bft) O-SO 247 0 min 0 W/m 15,3 C 33,3 C 0,0 km/h (0 Bft)
25/07/2012 17:30 33,2 C 34 % 1013,4 hPa 0,0 mm 2,2 km/h (1 Bft) S-SO 202 0 min 0 W/m 15,2 C 33,2 C 6,8 km/h (2 Bft)
25/07/2012 17:40 33,3 C 34 % 1013,3 hPa 0,0 mm 2,5 km/h (1 Bft) SO 225 0 min 0 W/m 15,3 C 33,3 C 3,6 km/h (1 Bft)
25/07/2012 17:50 32,9 C 35 % 1013,4 hPa 0,0 mm 1,4 km/h (1 Bft) O-SO 247 0 min 0 W/m 15,4 C 32,9 C 6,5 km/h (2 Bft)
25/07/2012 18:00 32,9 C 35 % 1013,4 hPa 0,0 mm 0,4 km/h (0 Bft) S 180 0 min 0 W/m 15,4 C 32,9 C 3,2 km/h (1 Bft)
25/07/2012 18:10 33,1 C 36 % 1013,3 hPa 0,0 mm 1,8 km/h (1 Bft) S 180 0 min 0 W/m 16,0 C 33,1 C 4,0 km/h (1 Bft)
25/07/2012 18:20 33,4 C 35 % 1013,3 hPa 0,0 mm 0,0 km/h (0 Bft) S-SO 202 0 min 0 W/m 15,8 C 33,4 C 0,0 km/h (0 Bft)
25/07/2012 18:30 33,4 C 36 % 1013,3 hPa 0,0 mm 0,0 km/h (0 Bft) S 180 0 min 0 W/m 16,3 C 33,4 C 0,0 km/h (0 Bft)
25/07/2012 18:40 33,7 C 36 % 1013,3 hPa 0,0 mm 0,0 km/h (0 Bft) NO 315 0 min 0 W/m 16,5 C 33,7 C 0,0 km/h (0 Bft)
25/07/2012 18:50 33,9 C 35 % 1013,3 hPa 0,0 mm 0,0 km/h (0 Bft) NO 315 0 min 0 W/m 16,2 C 33,9 C 0,0 km/h (0 Bft)
25/07/2012 19:00 34,1 C 35 % 1013,3 hPa 0,0 mm 1,1 km/h (1 Bft) NO 315 0 min 0 W/m 16,4 C 34,1 C 3,6 km/h (1 Bft)
25/07/2012 19:10 34,2 C 35 % 1013,2 hPa 0,0 mm 3,2 km/h (1 Bft) NO 315 0 min 0 W/m 16,5 C 34,2 C 7,6 km/h (2 Bft)
25/07/2012 19:20 34,3 C 35 % 1013,3 hPa 0,0 mm 0,4 km/h (0 Bft) NO 315 0 min 0 W/m 16,6 C 34,3 C 4,0 km/h (1 Bft)
25/07/2012 19:30 34,2 C 34 % 1013,2 hPa 0,0 mm 1,4 km/h (1 Bft) NO 315 0 min 0 W/m 16,1 C 34,2 C 1,4 km/h (1 Bft)
25/07/2012 19:40 34,1 C 35 % 1013,3 hPa 0,0 mm 0,0 km/h (0 Bft) NO 315 0 min 0 W/m 16,4 C 34,1 C 0,0 km/h (0 Bft)
25/07/2012 19:50 34,1 C 35 % 1013,3 hPa 0,0 mm 0,0 km/h (0 Bft) NO 315 0 min 0 W/m 16,4 C 34,1 C 0,0 km/h (0 Bft)
25/07/2012 20:00 33,8 C 36 % 1013,3 hPa 0,0 mm 2,2 km/h (1 Bft) NO 315 0 min 0 W/m 16,6 C 33,8 C 4,0 km/h (1 Bft)
25/07/2012 20:10 33,4 C 37 % 1013,3 hPa 0,0 mm 0,4 km/h (0 Bft) N-NO 337 0 min 0 W/m 16,7 C 33,4 C 4,0 km/h (1 Bft)
25/07/2012 20:20 33,0 C 37 % 1013,4 hPa 0,0 mm 0,0 km/h (0 Bft) N-NO 337 0 min 0 W/m 16,3 C 33,0 C 0,0 km/h (0 Bft)
25/07/2012 20:30 32,3 C 40 % 1013,4 hPa 0,0 mm 0,0 km/h (0 Bft) N-NO 337 0 min 0 W/m 16,9 C 32,3 C 0,0 km/h (0 Bft)
25/07/2012 20:40 31,6 C 40 % 1013,4 hPa 0,0 mm 0,0 km/h (0 Bft) N-NO 337 0 min 0 W/m 16,3 C 31,6 C 0,0 km/h (0 Bft)
25/07/2012 20:50 30,9 C 42 % 1013,5 hPa 0,0 mm 0,0 km/h (0 Bft) N-NO 337 0 min 0 W/m 16,5 C 30,9 C 0,0 km/h (0 Bft)
25/07/2012 21:00 30,1 C 43 % 1013,5 hPa 0,0 mm 0,0 km/h (0 Bft) N-NO 337 0 min 0 W/m 16,1 C 30,1 C 0,0 km/h (0 Bft)
25/07/2012 21:10 29,4 C 46 % 1013,6 hPa 0,0 mm 0,0 km/h (0 Bft) N-NO 337 0 min 0 W/m 16,5 C 29,4 C 0,0 km/h (0 Bft)
25/07/2012 21:20 28,7 C 47 % 1013,7 hPa 0,0 mm 0,0 km/h (0 Bft) N-NO 337 0 min 0 W/m 16,3 C 28,7 C 0,0 km/h (0 Bft)
25/07/2012 21:30 28,0 C 49 % 1013,8 hPa 0,0 mm 0,0 km/h (0 Bft) N-NO 337 0 min 0 W/m 16,3 C 28,0 C 0,0 km/h (0 Bft)
25/07/2012 21:40 27,4 C 50 % 1013,9 hPa 0,0 mm 0,0 km/h (0 Bft) N-NO 337 0 min 0 W/m 16,0 C 27,4 C 0,0 km/h (0 Bft)
25/07/2012 21:50 26,8 C 51 % 1013,9 hPa 0,0 mm 0,0 km/h (0 Bft) N-NO 337 0 min 0 W/m 15,8 C 26,8 C 0,0 km/h (0 Bft)
25/07/2012 22:00 26,1 C 53 % 1014,1 hPa 0,0 mm 0,0 km/h (0 Bft) N-NO 337 0 min 0 W/m 15,8 C 26,1 C 0,0 km/h (0 Bft)
25/07/2012 22:10 25,6 C 54 % 1014,3 hPa 0,0 mm 0,0 km/h (0 Bft) N-NO 337 0 min 0 W/m 15,6 C 25,6 C 0,0 km/h (0 Bft)
25/07/2012 22:20 25,1 C 56 % 1014,4 hPa 0,0 mm 0,0 km/h (0 Bft) N-NO 337 0 min 0 W/m 15,7 C 25,1 C 0,0 km/h (0 Bft)
25/07/2012 22:30 24,6 C 57 % 1014,4 hPa 0,0 mm 0,0 km/h (0 Bft) N-NO 337 0 min 0 W/m 15,5 C 24,6 C 0,0 km/h (0 Bft)
25/07/2012 22:40 24,1 C 57 % 1014,4 hPa 0,0 mm 0,0 km/h (0 Bft) N-NO 337 0 min 0 W/m 15,0 C 24,1 C 0,0 km/h (0 Bft)
25/07/2012 22:50 23,8 C 58 % 1014,5 hPa 0,0 mm 0,0 km/h (0 Bft) N-NO 337 0 min 0 W/m 15,0 C 23,8 C 0,0 km/h (0 Bft)
25/07/2012 23:00 23,4 C 59 % 1014,4 hPa 0,0 mm 0,0 km/h (0 Bft) N-NO 337 0 min 0 W/m 14,9 C 23,4 C 0,0 km/h (0 Bft)
25/07/2012 23:10 23,1 C 61 % 1014,4 hPa 0,0 mm 0,0 km/h (0 Bft) N-NO 337 0 min 0 W/m 15,2 C 23,1 C 0,0 km/h (0 Bft)
25/07/2012 23:20 22,8 C 61 % 1014,4 hPa 0,0 mm 0,0 km/h (0 Bft) N-NO 337 0 min 0 W/m 14,9 C 22,8 C 0,0 km/h (0 Bft)
_ Min-Heure 07:10 19:30 19:30 - 23:20 - - - - 06:40 07:10 23:20
Minimum _ 15,7 C 34 % 1013,2 hPa - 0,0 km/h (0 Bft) - - - - 12,3 C 15,7 C 0,0 km/h (0 Bft)
_ Max-Heure 19:20 07:30 22:50 23:20 16:20 - - 23:20 23:20 11:00 19:20 15:40
Maximum _ 34,3 C 81 % 1014,5 hPa 0,0 mm 7,2 km/h
E-SE (2 Bft)
- - 0 min 0 W/m 17,9 C 34,3 C 10,4 km/h
S-SO (2 Bft)
Moyenne _ 25,5 C 56 % 1013,8 hPa #0,0 mm 0,8 km/h (0 Bft) E - #0 min. 0 W/m 15,0 C 25,5 C 1,9 km/h (1 Bft)
Saint Bonnet de Bellac- Haute Vienne - France